Flag for U.S.A. Weather past 2 weeks in Pasadena, California, U.S.A.

Now
80 °F

Sunny.


Feels Like: 80 °F
Forecast: 62 / 90 °F
Wind: 3 mph from Southeast

Location: Burbank-Glendale-Pasadena Airport

Current Time: Sep 23, 2014 at 12:05:34 PM

Latest Report: Sep 23, 2014 at 10:53 AM


Visibility: 10 mi

Pressure: 29.94 "Hg

Humidity: 35%

Dew point: 50 °F

Location of PasadenaLocation

Historic Weather in Pasadena — Graph

°F

Pasadena temperature yesterday

Maximum temperature yesterday: 84 °F (at 2:53 PM)
Minimum temperature yesterday: 60 °F (at 6:53 AM)
Average temperature yesterday: 72 °F

Past Weeks' High & Low Weather Summary

 TemperatureHumidityPressure
High103 °F (Sep 14, 12:53 PM)83% (Sep 19, 6:04 AM)29.97 "Hg (Sep 19, 6:04 AM)
Low60 °F (Sep 22, 6:53 AM)12% (Sep 14, 2:53 PM)29.64 "Hg (Sep 16, 4:53 PM)
Average80 °F45%29.80 "Hg
* Reported Sep 8 10:53 AM — Sep 23 10:53 AM, Pasadena, Weather by CustomWeather, © 2014

Note: Actual official high and low records may vary slightly from our data, if they occured in-between our weather recording intervals... More about our weather records

Advertising

Pasadena weather history for previous 24 hours

 ConditionsComfort  
Time TempWeatherWind HumidityBarometerVisibility
10:53 AM
Sep 23
80 °FSunny.3 mph35%29.94 "Hg10 mi
9:53 AM75 °FSunny.No wind47%29.96 "Hg9 mi
8:53 AM70 °FSunny.No wind53%29.95 "Hg10 mi
7:53 AM65 °FSunny.3 mph61%29.94 "Hg8 mi
6:53 AM62 °FClear.No wind70%29.93 "Hg10 mi
5:53 AM61 °FClear.No wind75%29.91 "Hg10 mi
4:53 AM63 °FClear.No wind68%29.91 "Hg10 mi
3:53 AM63 °FClear.No wind73%29.90 "Hg10 mi
2:53 AM65 °FClear.No wind70%29.91 "Hg10 mi
1:53 AM66 °FClear.No wind81%29.91 "Hg10 mi
12:53 AM67 °FClear.No wind79%29.92 "Hg10 mi
11:53 PM
Sep 22
68 °FClear.No wind78%29.91 "Hg10 mi
10:53 PM69 °FClear.3 mph76%29.91 "Hg10 mi
9:53 PM70 °FClear.5 mph73%29.90 "Hg10 mi
8:53 PM72 °FClear.6 mph66%29.90 "Hg10 mi
7:53 PM75 °FClear.6 mph58%29.88 "Hg10 mi
6:53 PM77 °FSunny.6 mph52%29.87 "Hg10 mi
5:53 PM82 °FSunny.7 mph41%29.86 "Hg10 mi
4:53 PM84 °FSunny.8 mph37%29.87 "Hg10 mi
3:53 PM84 °FSunny.7 mph38%29.88 "Hg10 mi
2:53 PM84 °FSunny.7 mph40%29.89 "Hg10 mi
1:53 PM83 °FSunny.8 mph44%29.90 "Hg10 mi
12:53 PM82 °FSunny.6 mph44%29.92 "Hg10 mi
Weather by CustomWeather, © 2014

See weather overviewHow to use our weather pages